• In Moldova, Republic
  • List of Countries
  • For 7 days
  • Water Temperature
  • Satellite Maps
  • Weather Map
  • Weather Widgets
  • user-avatar
    Login

    Hourly Weather Namibe

    Today, 27 June, Tuesday

    Time Temperature Precipitation Wind Pressure Humidity
    00:00 +24°C° 0 mm 3 mps 761 mmHg 74%
    01:00 +23°C° 0 mm 4 mps 761 mmHg 75%
    02:00 +23°C° 0 mm 4 mps 761 mmHg 75%
    03:00 +22°C° 0 mm 4 mps 760 mmHg 76%
    04:00 +22°C° 0 mm 4 mps 760 mmHg 76%
    05:00 +22°C° 0 mm 4 mps 760 mmHg 75%
    06:00 +22°C° 0 mm 4 mps 760 mmHg 74%
    07:00 +22°C° 0 mm 5 mps 760 mmHg 73%
    08:00 +26°C° 0 mm 5 mps 760 mmHg 59%
    09:00 +29°C° 0 mm 5 mps 761 mmHg 45%
    10:00 +33°C° 0 mm 5 mps 761 mmHg 32%
    11:00 +35°C° 0 mm 6 mps 760 mmHg 27%
    12:00 +36°C° 0 mm 6 mps 760 mmHg 23%
    13:00 +39°C° 0 mm 7 mps 760 mmHg 19%
    14:00 +38°C° 0 mm 7 mps 759 mmHg 21%
    15:00 +37°C° 0 mm 8 mps 759 mmHg 22%
    16:00 +37°C° 0 mm 8 mps 759 mmHg 24%
    17:00 +34°C° 0 mm 8 mps 759 mmHg 27%
    18:00 +30°C° 0 mm 7 mps 759 mmHg 31%
    19:00 +28°C° 0 mm 7 mps 760 mmHg 34%
    20:00 +27°C° 0 mm 6 mps 760 mmHg 35%
    21:00 +27°C° 0 mm 6 mps 760 mmHg 36%
    22:00 +26°C° 0 mm 5 mps 761 mmHg 38%
    23:00 +25°C° 0 mm 5 mps 761 mmHg 38%

    Tomorrow, 28 June, Wednesday

    Time Temperature Precipitation Wind Pressure Humidity
    00:00 +25°C° 0 mm 5 mps 761 mmHg 39%
    01:00 +23°C° 0 mm 5 mps 760 mmHg 39%
    02:00 +23°C° 0 mm 5 mps 760 mmHg 40%
    03:00 +22°C° 0 mm 5 mps 760 mmHg 41%
    04:00 +22°C° 0 mm 5 mps 759 mmHg 41%
    05:00 +22°C° 0 mm 5 mps 759 mmHg 40%
    06:00 +22°C° 0 mm 5 mps 760 mmHg 40%
    07:00 +22°C° 0 mm 5 mps 760 mmHg 39%
    08:00 +26°C° 0 mm 5 mps 760 mmHg 32%
    09:00 +30°C° 0 mm 5 mps 760 mmHg 25%
    10:00 +34°C° 0 mm 5 mps 760 mmHg 18%
    11:00 +36°C° 0 mm 6 mps 760 mmHg 16%
    12:00 +38°C° 0 mm 6 mps 759 mmHg 15%
    13:00 +40°C° 0 mm 6 mps 759 mmHg 13%
    14:00 +39°C° 0 mm 7 mps 758 mmHg 14%
    15:00 +39°C° 0 mm 8 mps 758 mmHg 16%
    16:00 +38°C° 0 mm 8 mps 757 mmHg 17%
    17:00 +35°C° 0 mm 8 mps 757 mmHg 24%
    18:00 +32°C° 0 mm 7 mps 758 mmHg 31%
    19:00 +28°C° 0 mm 7 mps 758 mmHg 38%
    20:00 +28°C° 0 mm 6 mps 759 mmHg 38%
    21:00 +27°C° 0 mm 5 mps 759 mmHg 38%
    22:00 +26°C° 0 mm 5 mps 759 mmHg 39%
    23:00 +26°C° 0 mm 4 mps 759 mmHg 38%

    Day after tomorrow, 29 June, Thursday

    Time Temperature Precipitation Wind Pressure Humidity
    00:00 +26°C° 0 mm 4 mps 759 mmHg 36%
    01:00 +25°C° 0 mm 4 mps 759 mmHg 35%
    02:00 +25°C° 0 mm 4 mps 759 mmHg 35%
    03:00 +23°C° 0 mm 4 mps 758 mmHg 35%
    04:00 +23°C° 0 mm 4 mps 758 mmHg 34%
    05:00 +23°C° 0 mm 4 mps 758 mmHg 33%
    06:00 +23°C° 0 mm 4 mps 759 mmHg 33%
    07:00 +24°C° 0 mm 3 mps 759 mmHg 32%
    08:00 +27°C° 0 mm 4 mps 759 mmHg 26%
    09:00 +30°C° 0 mm 4 mps 760 mmHg 21%
    10:00 +34°C° 0 mm 4 mps 760 mmHg 15%
    11:00 +36°C° 0 mm 5 mps 759 mmHg 14%
    12:00 +37°C° 0 mm 5 mps 759 mmHg 13%
    13:00 +39°C° 0 mm 6 mps 758 mmHg 13%
    14:00 +38°C° 0 mm 6 mps 758 mmHg 17%
    15:00 +36°C° 0 mm 6 mps 758 mmHg 22%
    16:00 +35°C° 0 mm 7 mps 757 mmHg 27%
    17:00 +32°C° 0 mm 6 mps 758 mmHg 34%
    18:00 +29°C° 0 mm 5 mps 759 mmHg 42%
    19:00 +27°C° 0 mm 4 mps 759 mmHg 50%
    20:00 +26°C° 0 mm 4 mps 760 mmHg 52%
    21:00 +26°C° 0 mm 3 mps 760 mmHg 54%
    22:00 +25°C° 0 mm 2 mps 761 mmHg 56%
    23:00 +25°C° 0 mm 3 mps 761 mmHg 54%

    30 June, Friday

    Time Temperature Precipitation Wind Pressure Humidity
    00:00 +24°C° 0 mm 3 mps 760 mmHg 53%
    01:00 +24°C° 0 mm 3 mps 760 mmHg 52%
    02:00 +24°C° 0 mm 3 mps 760 mmHg 51%
    03:00 +22°C° 0 mm 3 mps 760 mmHg 51%
    04:00 +22°C° 0 mm 3 mps 759 mmHg 50%
    05:00 +22°C° 0 mm 3 mps 760 mmHg 49%
    06:00 +22°C° 0 mm 3 mps 760 mmHg 47%
    07:00 +22°C° 0 mm 3 mps 760 mmHg 45%
    08:00 +26°C° 0 mm 3 mps 760 mmHg 37%
    09:00 +29°C° 0 mm 4 mps 761 mmHg 29%
    10:00 +33°C° 0 mm 4 mps 761 mmHg 22%
    11:00 +34°C° 0 mm 4 mps 760 mmHg 20%
    12:00 +36°C° 0 mm 5 mps 760 mmHg 19%
    13:00 +38°C° 0 mm 6 mps 759 mmHg 17%
    14:00 +36°C° 0 mm 6 mps 759 mmHg 21%
    15:00 +35°C° 0 mm 7 mps 758 mmHg 25%
    16:00 +34°C° 0 mm 7 mps 758 mmHg 29%
    17:00 +32°C° 0 mm 6 mps 759 mmHg 36%
    18:00 +29°C° 0 mm 6 mps 759 mmHg 44%
    19:00 +27°C° 0 mm 5 mps 760 mmHg 51%
    20:00 +26°C° 0 mm 4 mps 760 mmHg 53%
    21:00 +25°C° 0 mm 4 mps 760 mmHg 54%
    22:00 +25°C° 0 mm 3 mps 761 mmHg 56%
    23:00 +24°C° 0 mm 3 mps 760 mmHg 55%

    1 July, Saturday

    Time Temperature Precipitation Wind Pressure Humidity
    00:00 +24°C° 0 mm 3 mps 760 mmHg 55%
    01:00 +24°C° 0 mm 3 mps 760 mmHg 54%
    02:00 +24°C° 0 mm 3 mps 760 mmHg 53%
    03:00 +22°C° 0 mm 3 mps 759 mmHg 52%
    04:00 +22°C° 0 mm 3 mps 759 mmHg 51%
    05:00 +22°C° 0 mm 4 mps 759 mmHg 49%
    06:00 +23°C° 0 mm 4 mps 760 mmHg 47%
    07:00 +23°C° 0 mm 4 mps 760 mmHg 44%
    08:00 +27°C° 0 mm 4 mps 760 mmHg 36%
    09:00 +30°C° 0 mm 4 mps 760 mmHg 28%
    10:00 +34°C° 0 mm 4 mps 760 mmHg 20%
    11:00 +36°C° 0 mm 4 mps 760 mmHg 19%
    12:00 +37°C° 0 mm 5 mps 759 mmHg 17%
    13:00 +40°C° 0 mm 6 mps 758 mmHg 15%
    14:00 +39°C° 0 mm 6 mps 758 mmHg 18%
    15:00 +38°C° 0 mm 7 mps 757 mmHg 20%
    16:00 +38°C° 0 mm 7 mps 757 mmHg 23%
    17:00 +34°C° 0 mm 7 mps 758 mmHg 31%
    18:00 +30°C° 0 mm 6 mps 758 mmHg 39%
    19:00 +28°C° 0 mm 5 mps 759 mmHg 47%
    20:00 +27°C° 0 mm 5 mps 759 mmHg 49%
    21:00 +26°C° 0 mm 4 mps 759 mmHg 51%
    22:00 +26°C° 0 mm 3 mps 760 mmHg 53%
    23:00 +25°C° 0 mm 3 mps 760 mmHg 52%

    2 July, Sunday

    Time Temperature Precipitation Wind Pressure Humidity
    00:00 +25°C° 0 mm 3 mps 759 mmHg 52%
    01:00 +25°C° 0 mm 3 mps 759 mmHg 51%
    02:00 +24°C° 0 mm 3 mps 759 mmHg 51%
    03:00 +24°C° 0 mm 3 mps 759 mmHg 51%
    04:00 +23°C° 0 mm 4 mps 758 mmHg 51%
    05:00 +24°C° 0 mm 3 mps 759 mmHg 48%
    06:00 +24°C° 0 mm 3 mps 759 mmHg 46%
    07:00 +24°C° 0 mm 3 mps 759 mmHg 44%
    08:00 +27°C° 0 mm 3 mps 759 mmHg 36%
    09:00 +31°C° 0 mm 3 mps 760 mmHg 28%
    10:00 +35°C° 0 mm 4 mps 760 mmHg 20%
    11:00 +36°C° 0 mm 4 mps 759 mmHg 19%
    12:00 +39°C° 0 mm 5 mps 758 mmHg 17%
    13:00 +40°C° 0 mm 5 mps 758 mmHg 16%
    14:00 +39°C° 0 mm 6 mps 757 mmHg 21%
    15:00 +36°C° 0 mm 6 mps 757 mmHg 25%
    16:00 +35°C° 0 mm 6 mps 757 mmHg 30%
    17:00 +33°C° 0 mm 5 mps 757 mmHg 39%
    18:00 +29°C° 0 mm 4 mps 758 mmHg 48%
    19:00 +27°C° 0 mm 3 mps 758 mmHg 57%
    20:00 +26°C° 0 mm 3 mps 759 mmHg 59%
    21:00 +26°C° 0 mm 2 mps 759 mmHg 61%
    22:00 +25°C° 0 mm 2 mps 760 mmHg 62%
    23:00 +25°C° 0 mm 2 mps 759 mmHg 62%
    Show more